| time (UTC) | temp C | wind direction | speed KPH | gust KPH | rain 1hr cm | rain 24hr cm | rain mn cm | humidity % | barometer mb |
| 20260507151527 | 12 | 360 | 0.0 | 0.0 | 0.00 | 0.25 | 0.18 | 76 | 1012.1 |
| 20260507150025 | 11 | 360 | 0.0 | 1.6 | 0.00 | 0.43 | 0.18 | 75 | 1012.2 |
| 20260507144525 | 11 | 360 | 0.0 | 3.2 | 0.00 | 0.43 | 0.18 | 79 | 1012.4 |
| 20260507143025 | 11 | 360 | 0.0 | 1.6 | 0.00 | 0.43 | 0.18 | 82 | 1012.6 |
| 20260507141525 | 11 | 360 | 0.0 | 1.6 | 0.00 | 0.43 | 0.18 | 83 | 1012.6 |
| 20260507140028 | 11 | 360 | 0.0 | 0.0 | 0.00 | 0.76 | 0.18 | 82 | 1012.8 |
| 20260507134523 | 11 | 360 | 0.0 | 3.2 | 0.00 | 0.76 | 0.18 | 81 | 1012.9 |
| 20260507133022 | 10 | 360 | 0.0 | 1.6 | 0.00 | 0.76 | 0.18 | 83 | 1012.7 |
| 20260507131521 | 10 | 360 | 0.0 | 4.8 | 0.00 | 0.76 | 0.18 | 84 | 1012.7 |
| 20260507130021 | 10 | 360 | 0.0 | 1.6 | 0.00 | 0.81 | 0.18 | 86 | 1012.7 |
| 20260507124520 | 10 | 360 | 0.0 | 0.0 | 0.00 | 0.81 | 0.18 | 86 | 1012.8 |
| 20260507123022 | 10 | 360 | 0.0 | 0.0 | 0.00 | 0.81 | 0.18 | 86 | 1012.8 |
| 20260507121517 | 10 | 360 | 0.0 | 1.6 | 0.00 | 0.81 | 0.18 | 87 | 1012.7 |
| 20260507120016 | 10 | 360 | 0.0 | 0.0 | 0.00 | 0.81 | 0.18 | 87 | 1012.6 |
| 20260507114515 | 10 | 360 | 0.0 | 3.2 | 0.00 | 0.81 | 0.18 | 88 | 1012.5 |
| 20260507113014 | 11 | 360 | 0.0 | 9.7 | 0.00 | 0.81 | 0.18 | 89 | 1012.3 |
| 20260507111516 | 11 | 360 | 0.0 | 8.0 | 0.00 | 0.81 | 0.18 | 89 | 1012.2 |
| 20260507110009 | 11 | 360 | 0.0 | 0.0 | 0.00 | 0.81 | 0.18 | 89 | 1012.2 |
| 20260507104506 | 11 | 360 | 0.0 | 0.0 | 0.03 | 0.81 | 0.18 | 90 | 1012.1 |
| 20260507103004 | 11 | 360 | 0.0 | 3.2 | 0.03 | 0.81 | 0.18 | 90 | 1011.9 |
| 20260507101502 | 11 | 360 | 0.0 | 4.8 | 0.03 | 0.81 | 0.18 | 90 | 1011.7 |
| 20260507100002 | 12 | 360 | 0.0 | 0.0 | 0.03 | 0.81 | 0.18 | 90 | 1011.5 |
| 20260507094603 | 12 | 360 | 0.0 | 0.0 | 0.00 | 0.79 | 0.15 | 90 | 1011.7 |
| 20260507093102 | 12 | 360 | 0.0 | 0.0 | 0.00 | 0.79 | 0.15 | 90 | 1011.5 |
| 20260507091558 | 12 | 360 | 0.0 | 0.0 | 0.00 | 0.79 | 0.15 | 90 | 1011.5 |
| 20260507090100 | 12 | 360 | 0.0 | 0.0 | 0.00 | 0.79 | 0.15 | 90 | 1011.6 |
| 20260507084605 | 12 | 360 | 0.0 | 0.0 | 0.00 | 0.79 | 0.15 | 90 | 1011.3 |
| 20260507083054 | 12 | 360 | 0.0 | 0.0 | 0.00 | 0.79 | 0.15 | 90 | 1011.3 |
| 20260507081557 | 12 | 360 | 0.0 | 3.2 | 0.05 | 0.79 | 0.15 | 89 | 1010.9 |
| 20260507080054 | 12 | 360 | 0.0 | 4.8 | 0.05 | 0.79 | 0.15 | 89 | 1010.7 |
| 20260507074552 | 12 | 360 | 0.0 | 6.4 | 0.05 | 0.79 | 0.15 | 89 | 1010.6 |
| 20260507073048 | 12 | 360 | 0.0 | 4.8 | 0.03 | 0.76 | 0.13 | 89 | 1010.3 |
| 20260507071548 | 13 | 360 | 0.0 | 1.6 | 0.00 | 0.71 | 0.10 | 89 | 1010.4 |
| 20260507070101 | 13 | 360 | 0.0 | 1.6 | 0.00 | 0.71 | 0.10 | 89 | 1010.3 |
| 20260507064551 | 13 | 360 | 0.0 | 3.2 | 0.03 | 0.71 | 0.10 | 89 | 1010.5 |
| 20260507063041 | 13 | 360 | 0.0 | 8.0 | 0.03 | 0.71 | 0.10 | 89 | 1010.5 |
| 20260507061541 | 13 | 360 | 0.0 | 4.8 | 0.03 | 0.71 | 0.10 | 88 | 1010.4 |
| 20260507060038 | 14 | 360 | 0.0 | 6.4 | 0.05 | 0.71 | 0.10 | 87 | 1010.3 |
| 20260507054552 | 14 | 360 | 0.0 | 0.0 | 0.08 | 0.71 | 0.08 | 86 | 1010.5 |
| 20260507053035 | 15 | 360 | 0.0 | 1.6 | 0.08 | 0.71 | 0.08 | 85 | 1010.6 |
| 20260507051531 | 15 | 360 | 0.0 | 6.4 | 0.08 | 0.71 | 0.08 | 83 | 1010.2 |
| 20260507050040 | 15 | 360 | 0.0 | 3.2 | 0.03 | 0.66 | 0.03 | 81 | 1011.1 |
| 20260507044527 | 16 | 360 | 0.0 | 8.0 | 0.00 | 0.64 | 0.00 | 79 | 1010.3 |
| 20260507043025 | 16 | 360 | 0.0 | 3.2 | 0.00 | 0.64 | 0.00 | 79 | 1010.5 |
| 20260507041521 | 16 | 360 | 0.0 | 3.2 | 0.00 | 0.64 | 0.00 | 78 | 1010.5 |
| 20260507040019 | 16 | 360 | 0.0 | 3.2 | 0.00 | 0.64 | 0.64 | 78 | 1010.2 |
| 20260507034521 | 17 | 360 | 0.0 | 4.8 | 0.00 | 0.64 | 0.64 | 77 | 1009.9 |
| 20260507033019 | 17 | 360 | 3.2 | 11.3 | 0.00 | 0.64 | 0.64 | 80 | 1010.1 |
| 20260507031518 | 17 | 360 | 0.0 | 4.8 | 0.00 | 0.64 | 0.64 | 79 | 1010.0 |
| 20260507030019 | 17 | 360 | 0.0 | 1.6 | 0.00 | 0.64 | 0.64 | 78 | 1009.3 |
| 20260507024518 | 17 | 360 | 0.0 | 3.2 | 0.00 | 0.64 | 0.64 | 77 | 1009.7 |
| 20260507023017 | 17 | 360 | 0.0 | 14.5 | 0.00 | 0.64 | 0.64 | 78 | 1009.2 |
| 20260507021521 | 18 | 360 | 0.0 | 6.4 | 0.00 | 0.64 | 0.64 | 79 | 1009.4 |
| 20260507020016 | 18 | 360 | 1.6 | 6.4 | 0.00 | 0.64 | 0.64 | 79 | 1009.0 |
| 20260507014517 | 18 | 360 | 0.0 | 8.0 | 0.00 | 0.64 | 0.64 | 81 | 1009.0 |
| 20260507013016 | 18 | 360 | 0.0 | 3.2 | 0.00 | 0.64 | 0.64 | 83 | 1009.3 |
| 20260507011520 | 19 | 360 | 0.0 | 0.0 | 0.00 | 0.64 | 0.64 | 84 | 1009.2 |
| 20260507010021 | 19 | 360 | 0.0 | 0.0 | 0.00 | 0.64 | 0.64 | 83 | 1009.2 |
| 20260507004515 | 19 | 360 | 0.0 | 0.0 | 0.00 | 0.64 | 0.64 | 83 | 1008.9 |
| 20260507003015 | 19 | 360 | 0.0 | 0.0 | 0.00 | 0.64 | 0.64 | 83 | 1008.7 |
| 20260507001515 | 19 | 360 | 0.0 | 0.0 | 0.00 | 0.64 | 0.64 | 82 | 1008.6 |
| 20260507000018 | 19 | 360 | 0.0 | 0.0 | 0.00 | 0.64 | 0.64 | 81 | 1008.6 |
| 20260506234513 | 20 | 360 | 0.0 | 0.0 | 0.00 | 0.64 | 0.64 | 81 | 1008.7 |
| 20260506233013 | 20 | 360 | 0.0 | 3.2 | 0.00 | 0.64 | 0.64 | 80 | 1008.3 |
| 20260506231513 | 20 | 360 | 0.0 | 4.8 | 0.00 | 0.64 | 0.64 | 80 | 1008.0 |
| 20260506230011 | 20 | 360 | 0.0 | 8.0 | 0.00 | 0.64 | 0.64 | 80 | 1008.0 |
| 20260506224512 | 20 | 360 | 0.0 | 3.2 | 0.00 | 0.64 | 0.64 | 80 | 1008.1 |
| 20260506223011 | 20 | 360 | 0.0 | 1.6 | 0.00 | 0.64 | 0.64 | 80 | 1007.9 |
| 20260506221510 | 20 | 360 | 0.0 | 3.2 | 0.00 | 0.64 | 0.64 | 80 | 1007.9 |
| 20260506220010 | 20 | 360 | 0.0 | 4.8 | 0.00 | 0.64 | 0.64 | 80 | 1007.9 |
| 20260506214510 | 20 | 360 | 0.0 | 9.7 | 0.00 | 0.64 | 0.64 | 80 | 1007.8 |
| 20260506213009 | 20 | 360 | 0.0 | 4.8 | 0.00 | 0.64 | 0.64 | 80 | 1007.8 |
| 20260506211508 | 20 | 360 | 0.0 | 8.0 | 0.00 | 0.64 | 0.64 | 79 | 1007.6 |
| 20260506210010 | 20 | 360 | 3.2 | 8.0 | 0.00 | 0.64 | 0.64 | 79 | 1007.3 |
| 20260506204515 | 20 | 360 | 1.6 | 8.0 | 0.00 | 0.64 | 0.64 | 80 | 1007.5 |
| 20260506203006 | 20 | 360 | 1.6 | 9.7 | 0.00 | 0.64 | 0.64 | 79 | 1007.3 |
| 20260506201508 | 20 | 360 | 3.2 | 9.7 | 0.00 | 0.64 | 0.64 | 80 | 1007.4 |
| 20260506200009 | 20 | 360 | 0.0 | 6.4 | 0.00 | 0.64 | 0.64 | 81 | 1007.5 |
| 20260506194504 | 20 | 360 | 3.2 | 8.0 | 0.00 | 0.64 | 0.64 | 80 | 1007.6 |
| 20260506193002 | 20 | 360 | 3.2 | 11.3 | 0.00 | 0.64 | 0.64 | 79 | 1007.6 |
| 20260506191502 | 20 | 360 | 1.6 | 6.4 | 0.00 | 0.64 | 0.64 | 81 | 1007.7 |
| 20260506190100 | 19 | 360 | 1.6 | 8.0 | 0.00 | 0.64 | 0.64 | 82 | 1007.8 |
| 20260506184604 | 18 | 360 | 1.6 | 9.7 | 0.00 | 0.64 | 0.64 | 83 | 1008.0 |
| 20260506183104 | 18 | 360 | 1.6 | 8.0 | 0.00 | 0.64 | 0.64 | 84 | 1008.2 |
| 20260506181606 | 18 | 360 | 3.2 | 11.3 | 0.00 | 0.64 | 0.64 | 85 | 1008.1 |
| 20260506180056 | 17 | 360 | 6.4 | 14.5 | 0.00 | 0.64 | 0.64 | 87 | 1008.3 |
| 20260506174555 | 17 | 360 | 0.0 | 8.0 | 0.00 | 0.64 | 0.64 | 90 | 1008.5 |
| 20260506173125 | 17 | 360 | 1.6 | 4.8 | 0.00 | 0.64 | 0.64 | 91 | 1008.5 |
| 20260506171557 | 16 | 360 | 3.2 | 9.7 | 0.00 | 0.64 | 0.64 | 92 | 1008.5 |
| 20260506170106 | 16 | 360 | 3.2 | 12.9 | 0.00 | 0.64 | 0.64 | 92 | 1008.8 |
| 20260506164552 | 16 | 360 | 1.6 | 9.7 | 0.00 | 0.64 | 0.64 | 93 | 1008.7 |
| 20260506163056 | 16 | 360 | 0.0 | 11.3 | 0.00 | 0.64 | 0.64 | 93 | 1008.9 |
| 20260506161550 | 16 | 360 | 3.2 | 12.9 | 0.03 | 0.64 | 0.64 | 93 | 1008.8 |
| 20260506160048 | 16 | 360 | 1.6 | 11.3 | 0.08 | 0.64 | 0.64 | 93 | 1008.9 |
| 20260506154605 | 15 | 360 | 1.6 | 11.3 | 0.10 | 0.64 | 0.64 | 93 | 1009.0 |
| 20260506153046 | 15 | 360 | 1.6 | 8.0 | 0.10 | 0.64 | 0.64 | 93 | 1009.2 |